IRIDIUM 106 1 41917U 17003A 26124.49016519 -.00000011 00000+0 -11019-4 0 9992 2 41917 86.3932 106.8265 0002428 80.3585 279.7885 14.34217387486945 IRIDIUM 103 1 41918U 17003B 26124.47747995 .00000016 00000+0 -12084-5 0 9998 2 41918 86.3931 106.7314 0002426 94.2863 265.8610 14.34217487486965 IRIDIUM 109 1 41919U 17003C 26124.48382254 -.00000002 00000+0 -76274-5 0 9990 2 41919 86.3931 106.7875 0002185 89.0494 271.0953 14.34217241486936 IRIDIUM 102 1 41920U 17003D 26124.52187704 .00000053 00000+0 11794-4 0 9999 2 41920 86.3931 106.6962 0002264 86.7897 273.3558 14.34217972487021 IRIDIUM 105 1 41921U 17003E 26124.62013240 .00000278 00000+0 91714-4 0 9993 2 41921 86.3954 75.0816 0002304 86.7169 273.4291 14.34398944488891 IRIDIUM 104 1 41922U 17003F 26124.46479047 .00000146 00000+0 45145-4 0 9998 2 41922 86.3930 106.7620 0002225 95.0770 265.0680 14.34219192487002 IRIDIUM 114 1 41923U 17003G 26124.47113780 -.00000037 00000+0 -20116-4 0 9991 2 41923 86.3931 106.7428 0002219 92.7579 267.3871 14.34217086486987 IRIDIUM 108 1 41924U 17003H 26124.56919549 .00000060 00000+0 14266-4 0 9992 2 41924 86.3947 74.9955 0002163 83.2470 276.8972 14.34217819488858 IRIDIUM 112 1 41925U 17003J 26124.45845040 .00000086 00000+0 23732-4 0 9991 2 41925 86.3927 106.5920 0002250 91.3330 268.8124 14.34218418487005 IRIDIUM 111 1 41926U 17003K 26124.51553234 .00000086 00000+0 23747-4 0 9996 2 41926 86.3928 106.6377 0002362 89.6103 270.5364 14.34217598486997 IRIDIUM 113 1 42803U 17039A 26124.56526658 .00000119 00000+0 35282-4 0 9999 2 42803 86.3977 340.4200 0002085 92.5451 267.5984 14.34218698464936 IRIDIUM 123 1 42804U 17039B 26124.39744163 .00000074 00000+0 19477-4 0 9992 2 42804 86.4010 11.9392 0002337 85.7616 274.3847 14.34218004463670 IRIDIUM 120 1 42805U 17039C 26124.55892562 .00000023 00000+0 10350-5 0 9994 2 42805 86.3970 340.2110 0002172 82.8457 277.2986 14.34217712464929 IRIDIUM 115 1 42806U 17039D 26124.64813788 .00000318 00000+0 88392-4 0 9995 2 42806 86.4505 340.2965 0002451 84.2117 275.9363 14.43281175467989 IRIDIUM 118 1 42807U 17039E 26124.56869114 -.00000012 00000+0 -11362-4 0 9997 2 42807 86.4004 11.8655 0002100 86.1133 274.0303 14.34217263463696 IRIDIUM 117 1 42808U 17039F 26124.23887683 .00000082 00000+0 22063-4 0 9998 2 42808 86.4005 11.9615 0002316 86.1828 273.9633 14.34217948463677 IRIDIUM 126 1 42809U 17039G 26124.61308983 .00000057 00000+0 13246-4 0 9997 2 42809 86.4007 11.8557 0002252 89.0209 271.1245 14.34217950463704 IRIDIUM 124 1 42810U 17039H 26124.51264914 .00000101 00000+0 23944-4 0 9999 2 42810 86.4453 308.6336 0002230 89.5638 270.5819 14.43282801468814 IRIDIUM 128 1 42811U 17039J 26124.53405950 .00000055 00000+0 12712-4 0 9998 2 42811 86.3994 43.3930 0002343 79.3644 280.7816 14.34217895463722 IRIDIUM 121 1 42812U 17039K 26124.42281365 .00000247 00000+0 81088-4 0 9994 2 42812 86.4009 11.9625 0002209 83.3427 276.8020 14.34220741463556 IRIDIUM 133 1 42955U 17061A 26124.49600394 .00000074 00000+0 19424-4 0 9994 2 42955 86.3995 43.5256 0002250 84.8816 275.2637 14.34217937448511 IRIDIUM 100 1 42956U 17061B 26124.48966105 .00000091 00000+0 25335-4 0 9996 2 42956 86.3991 43.4479 0002253 84.2590 275.8863 14.34218017448517 IRIDIUM 122 1 42957U 17061C 26124.52771708 .00000065 00000+0 16146-4 0 9996 2 42957 86.3993 43.4321 0002282 86.2930 273.8527 14.34217875448525 IRIDIUM 129 1 42958U 17061D 26124.48331824 .00000057 00000+0 13274-4 0 9993 2 42958 86.3993 43.5172 0002051 90.7803 269.3628 14.34217823448530 IRIDIUM 119 1 42959U 17061E 26124.52137433 .00000046 00000+0 93886-5 0 9995 2 42959 86.3995 43.4970 0002240 87.9970 272.1483 14.34217822448553 IRIDIUM 107 1 42960U 17061F 26124.47063393 .00000064 00000+0 15773-4 0 9992 2 42960 86.3993 43.5391 0002472 84.9273 275.2205 14.34217920448556 IRIDIUM 132 1 42961U 17061G 26124.47697609 .00000055 00000+0 12400-4 0 9990 2 42961 86.3994 43.5163 0002263 84.9275 275.2179 14.34217911448555 IRIDIUM 136 1 42962U 17061H 26124.50868552 .00000053 00000+0 11792-4 0 9993 2 42962 86.3996 43.5095 0002342 86.3422 273.8042 14.34219661448579 IRIDIUM 139 1 42963U 17061J 26124.51503115 .00000191 00000+0 61000-4 0 9996 2 42963 86.3996 43.5679 0002352 83.1750 276.9714 14.34216324448582 IRIDIUM 125 1 42964U 17061K 26124.50234665 .00000050 00000+0 10818-4 0 9992 2 42964 86.3998 43.6338 0002572 94.3187 265.8303 14.34217938448594 IRIDIUM 135 1 43070U 17083A 26124.54624015 .00000069 00000+0 17423-4 0 9990 2 43070 86.3975 340.2677 0002140 86.9681 273.1759 14.34218066437898 IRIDIUM 138 1 43071U 17083B 26124.57161066 .00000014 00000+0 -19154-5 0 9991 2 43071 86.3985 339.9455 0002042 95.8897 264.2532 14.34217605437885 IRIDIUM 116 1 43072U 17083C 26124.53991704 .00000230 00000+0 74908-4 0 9994 2 43072 86.3974 340.2568 0002251 78.1974 281.9474 14.34218957437912 IRIDIUM 130 1 43073U 17083D 26124.50818539 .00000021 00000+0 57151-6 0 9997 2 43073 86.3980 340.5406 0002249 83.1349 277.0103 14.34217604437859 IRIDIUM 151 1 43074U 17083E 26124.55258246 .00000036 00000+0 57986-5 0 9997 2 43074 86.3975 340.3082 0002135 84.9870 275.1570 14.34217954437882 IRIDIUM 134 1 43075U 17083F 26124.59063871 .00000020 00000+0 69000-8 0 9996 2 43075 86.3977 340.2998 0002270 86.0695 274.0760 14.34217725437850 IRIDIUM 137 1 43076U 17083G 26124.53355445 .00000057 00000+0 13209-4 0 9998 2 43076 86.3976 340.4154 0001882 74.8774 285.2630 14.34217932437914 IRIDIUM 141 1 43077U 17083H 26124.52721246 .00000178 00000+0 56644-4 0 9998 2 43077 86.3972 340.2513 0002103 89.1141 271.0296 14.34218116437918 IRIDIUM 153 1 43078U 17083J 26124.54915920 .00000039 00000+0 69779-5 0 9995 2 43078 86.3932 308.7285 0002234 95.0620 265.0831 14.34217931439029 IRIDIUM 131 1 43079U 17083K 26124.51452717 .00000013 00000+0 -25400-5 0 9999 2 43079 86.3978 340.4393 0001971 87.8077 272.3345 14.34217585437849 IRIDIUM 144 1 43249U 18030A 26124.55550380 .00000059 00000+0 13850-4 0 9994 2 43249 86.3930 308.6560 0002167 86.2676 273.8768 14.34218287423888 IRIDIUM 149 1 43250U 18030B 26124.56184591 .00000063 00000+0 15278-4 0 9995 2 43250 86.3929 308.6209 0002106 91.8892 268.2545 14.34218398423900 IRIDIUM 157 1 43251U 18030C 26124.51110388 -.00000019 00000+0 -13775-4 0 9997 2 43251 86.3930 308.6944 0002029 89.3356 270.8072 14.34217452423870 IRIDIUM 140 1 43252U 18030D 26124.53013201 .00000034 00000+0 51871-5 0 9991 2 43252 86.3932 308.6991 0002228 89.0374 271.1077 14.34218321423935 IRIDIUM 145 1 43253U 18030E 26124.51744609 -.00000003 00000+0 -81095-5 0 9992 2 43253 86.3930 308.6768 0002125 81.0206 279.1230 14.34217682423868 IRIDIUM 146 1 43254U 18030F 26124.56818687 -.00000009 00000+0 -10117-4 0 9998 2 43254 86.3929 308.6678 0002047 86.1461 273.9969 14.34217591423881 IRIDIUM 148 1 43255U 18030G 26124.53649039 .00000063 00000+0 15393-4 0 9998 2 43255 86.3932 308.7235 0002035 88.5537 271.5892 14.34218616423915 IRIDIUM 142 1 43256U 18030H 26124.50477882 .00000070 00000+0 17839-4 0 9996 2 43256 86.3929 308.6274 0002203 84.5562 275.5885 14.34218424423873 IRIDIUM 150 1 43257U 18030J 26124.54281737 -.00000030 00000+0 -17690-4 0 9996 2 43257 86.3930 308.7264 0002065 88.6714 271.4719 14.34217138423902 IRIDIUM 143 1 43258U 18030K 26124.52378890 .00000062 00000+0 15041-4 0 9993 2 43258 86.3935 308.8253 0002206 86.1434 274.0014 14.34218156423836 IRIDIUM 161 1 43478U 18047C 26124.49056661 .00000184 00000+0 48677-4 0 9996 2 43478 86.4452 106.7439 0002099 93.0326 267.1116 14.43279804418830 IRIDIUM 152 1 43479U 18047D 26124.49650689 .00000044 00000+0 85144-5 0 9993 2 43479 86.3927 106.6022 0002270 91.2089 268.9367 14.34217906416224 IRIDIUM 147 1 43480U 18047E 26124.50284663 .00000150 00000+0 46591-4 0 9992 2 43480 86.3928 106.6039 0002295 85.4103 274.7355 14.34219218416224 IRIDIUM 110 1 43481U 18047F 26124.43942364 .00000009 00000+0 -39098-5 0 9993 2 43481 86.3930 106.7213 0001959 97.6663 262.4756 14.34217407416200 IRIDIUM 162 1 43482U 18047G 26124.48426321 .00000050 00000+0 88833-5 0 9995 2 43482 86.4450 106.6380 0002451 90.0693 270.0789 14.43278916418824 IRIDIUM 160 1 43569U 18061A 26124.59456422 .00000251 00000+0 82628-4 0 9992 2 43569 86.3952 75.0205 0002177 86.8576 273.2869 14.34218580407125 IRIDIUM 166 1 43570U 18061B 26124.27110024 .00000208 00000+0 67038-4 0 9994 2 43570 86.3949 75.1067 0002303 82.6232 277.5226 14.34221551407108 IRIDIUM 158 1 43571U 18061C 26124.58822361 .00000046 00000+0 95390-5 0 9996 2 43571 86.3950 74.9842 0002348 88.2455 271.9009 14.34217729407117 IRIDIUM 165 1 43572U 18061D 26124.61359319 .00000063 00000+0 15467-4 0 9994 2 43572 86.3954 75.0192 0002257 82.4797 277.6656 14.34217989407148 IRIDIUM 155 1 43573U 18061E 26124.57553843 .00000064 00000+0 15930-4 0 9994 2 43573 86.3948 74.9060 0002391 86.0881 274.0588 14.34217872407109 IRIDIUM 154 1 43574U 18061F 26124.55651016 .00000012 00000+0 -27847-5 0 9999 2 43574 86.3952 75.0458 0002120 81.1937 278.9499 14.34217518407152 IRIDIUM 163 1 43575U 18061G 26124.60725118 .00000040 00000+0 71991-5 0 9990 2 43575 86.3950 74.9410 0002254 88.5733 271.5721 14.34217084407133 IRIDIUM 156 1 43576U 18061H 26124.58188039 .00000096 00000+0 27099-4 0 9993 2 43576 86.3950 74.9589 0002423 84.4057 275.7415 14.34218279407125 IRIDIUM 164 1 43577U 18061J 26124.56284898 .00000222 00000+0 72300-4 0 9998 2 43577 86.3939 75.0059 0001955 76.0939 284.0474 14.34219268407163 IRIDIUM 159 1 43578U 18061K 26124.60090846 .00000020 00000+0 19684-6 0 9996 2 43578 86.3950 74.9283 0002174 88.1344 272.0101 14.34217714407137 IRIDIUM 180 1 43922U 19002A 26124.39109861 .00000089 00000+0 24853-4 0 9996 2 43922 86.4008 11.9024 0002085 87.2380 272.9055 14.34217849382712 IRIDIUM 176 1 43923U 19002B 26124.38779300 .00000681 00000+0 10403-3 0 9990 2 43923 86.6125 11.8537 0002359 80.6403 279.5081 14.72251459392800 IRIDIUM 168 1 43924U 19002C 26124.38475543 .00000160 00000+0 49953-4 0 9998 2 43924 86.4009 11.9810 0002137 84.5735 275.5704 14.34219234382697 IRIDIUM 173 1 43925U 19002D 26124.65114540 .00000062 00000+0 14948-4 0 9993 2 43925 86.4006 11.7606 0002233 87.5221 272.6231 14.34217918382719 IRIDIUM 169 1 43926U 19002E 26124.50166444 .00000347 00000+0 10687-3 0 9999 2 43926 86.4249 43.4492 0002907 87.2334 272.9197 14.38609183383947 IRIDIUM 172 1 43927U 19002F 26124.43549496 .00000063 00000+0 15483-4 0 9999 2 43927 86.4008 11.8584 0002101 86.6501 273.4935 14.34216767382692 IRIDIUM 175 1 43928U 19002G 26124.53778731 .00000098 00000+0 23088-4 0 9995 2 43928 86.4483 308.7795 0004142 39.9125 320.2380 14.43591813392685 IRIDIUM 171 1 43929U 19002H 26124.41646936 .00000057 00000+0 13367-4 0 9998 2 43929 86.4016 12.1676 0002244 82.2689 277.8762 14.34217947382682 IRIDIUM 170 1 43930U 19002J 26124.39396646 .00000703 00000+0 10754-3 0 9991 2 43930 86.6128 11.8538 0002289 87.3530 272.7949 14.72249974392817 IRIDIUM 167 1 43931U 19002K 26124.41012728 .00000038 00000+0 63350-5 0 9994 2 43931 86.4007 11.8910 0002427 79.5319 280.6150 14.34217794382687 IRIDIUM 181 1 56726U 23068S 26124.56759632 .00000347 00000+0 97168-4 0 9991 2 56726 86.4489 75.0205 0002036 82.9144 277.2288 14.43312005156141 IRIDIUM 177 1 56727U 23068T 26124.65195651 .00001013 00000+0 12971-3 0 9996 2 56727 86.1982 349.4724 0002397 92.5760 267.5735 14.80252292159922 IRIDIUM 174 1 56728U 23068U 26124.65347015 .00000801 00000+0 12304-3 0 9994 2 56728 86.6134 11.8883 0002401 89.4503 270.6989 14.72258413159613 IRIDIUM 178 1 56729U 23068V 26124.50583189 .00001217 00000+0 15666-3 0 9999 2 56729 86.6562 43.6071 0002294 81.0335 279.1146 14.80242096159902 IRIDIUM 179 1 56730U 23068W 26124.50046663 .00001217 00000+0 15666-3 0 9992 2 56730 86.6792 52.4595 0002660 79.4570 280.6951 14.80240266159905